#timestamp,LO_Frequency,Hit,StdDev 
1503619215.5,286047001.8,N,1.3
1503619235.4,286047002.0,N,1.4
1503619255.2,286047001.5,N,1.2
1503619275.1,286047002.0,N,1.1
1503619276.0,286047002.0,N,1.0
1503619295.8,286046999.7,N,1.0
1503619315.6,286047001.6,N,1.0
1503619335.5,286047002.5,N,1.0
1503619355.3,286047002.4,N,1.0
1503619375.2,286047002.7,N,1.0
1503619395.9,286047002.3,N,0.9
1503619415.7,286047000.3,N,1.0
1503619435.6,286046999.9,N,1.0
1503619455.4,286047000.2,N,1.0
1503619475.2,286046998.1,N,1.2
1503619495.1,286046998.6,N,1.3
1503619496.0,286046998.6,N,1.4
1503619515.8,286046998.7,N,1.4
1503619535.7,286046998.9,N,1.4
1503619555.5,286046996.9,N,1.6
1503619575.3,286046997.5,N,1.7
1503619595.2,286046997.9,N,1.7
1503619615.0,286046997.6,N,1.8
1503619615.9,286046997.6,N,1.8
1503619635.8,286046996.8,N,1.9
1503619655.6,286046997.6,N,1.9
1503619675.4,286046995.4,N,2.1
1503619695.3,286046994.9,N,2.2
1503619715.1,286046997.6,N,2.2
1503619735.9,286046997.3,N,2.2
1503619755.7,286046996.7,N,2.2
1503619775.5,286046997.7,N,2.2
1503619795.4,286046997.5,N,2.2
1503619815.2,286046997.5,N,2.1
1503619835.1,286046995.4,N,2.1
1503619836.0,286046995.4,N,2.2
1503619855.8,286046995.8,N,2.1
1503619875.6,286046993.3,Y,0.0
1503619895.5,286046998.0,P,0.1
1503619915.3,286046997.2,P,0.4
1503619935.2,286046994.9,P,1.3
1503619955.9,286046996.1,N,1.2
1503619975.7,286046996.0,Y,0.0
1503619995.6,286046999.2,P,1.2
1503620015.4,286046998.7,N,1.0
1503620035.3,286046998.1,N,0.9
1503620055.1,286046998.5,N,0.8
1503620075.8,286046998.5,N,0.7
1503620095.7,286046999.1,N,0.7
1503620115.5,286046996.5,Y,0.0
1503620135.4,286047000.8,P,1.2
1503620155.2,286047001.1,N,1.2
1503620175.0,286046998.8,N,1.2
1503620176.0,286046998.8,N,1.1
1503620195.8,286046999.4,N,1.0
1503620215.6,286046999.6,N,1.0
1503620235.5,286046996.8,Y,0.0
1503620255.3,286046998.4,P,0.6
1503620275.2,286046999.1,N,0.5
1503620295.9,286046999.2,N,0.4
1503620315.7,286046999.4,N,0.4
1503620335.6,286046998.9,N,0.4
1503620355.4,286046998.2,Y,0.0
1503620375.2,286047001.0,P,1.0
1503620395.1,286047000.7,N,0.8
1503620396.0,286047000.7,N,0.7
1503620415.8,286047000.3,N,0.7
1503620435.7,286047000.4,N,0.6
1503620455.5,286047001.0,N,0.6
1503620475.4,286047001.1,N,0.6
1503620495.2,286047001.2,N,0.6
1503620515.0,286046998.1,Y,0.0
1503620515.9,286046998.1,P,1.3
1503620535.8,286046999.1,N,1.0
1503620555.6,286046998.7,N,0.9
1503620575.5,286046999.2,N,0.8
1503620595.3,286046999.1,N,0.8
1503620615.1,286046996.9,Y,0.0
1503620635.9,286046998.3,P,0.4
1503620655.7,286046998.3,P,0.4
1503620675.6,286046996.7,P,0.9
1503620695.4,286046996.6,Y,0.0
1503620715.2,286047000.9,P,1.4
1503620735.1,286047000.7,N,1.3
1503620736.0,286047000.7,N,1.2
1503620755.8,286046998.2,N,1.3
1503620775.7,286046998.1,N,1.3
1503620795.5,286047001.0,N,1.3
1503620815.3,286047001.0,N,1.3
1503620835.2,286046999.9,N,1.2
1503620855.0,286047001.1,N,1.2
1503620855.9,286047001.1,N,1.2
1503620875.8,286047001.0,N,1.2
1503620895.6,286047000.0,N,1.2
1503620915.4,286046999.8,N,1.1
1503620935.3,286047002.8,N,1.3
1503620955.1,286047002.6,N,1.4
1503620975.9,286047002.6,N,1.4
1503620995.7,286047002.1,N,1.4
1503621015.5,286047002.0,N,1.4
1503621035.4,286047002.7,N,1.4
1503621055.2,286047002.6,N,1.5
1503621075.0,286047002.5,N,1.5
1503621075.9,286047002.5,N,1.5
1503621095.8,286047002.3,N,1.4
1503621115.6,286047002.3,N,1.4
1503621135.5,286047002.6,N,1.4
1503621155.3,286047001.8,N,1.4
1503621175.1,286047001.6,N,1.4
1503621195.9,286047001.7,N,1.4
1503621215.7,286047003.9,N,1.4
1503621235.6,286047004.3,N,1.4
1503621255.4,286047001.8,N,1.4
1503621275.2,286047004.4,Y,0.0
1503621295.1,286046999.7,P,0.9
1503621296.0,286046999.7,N,0.9
1503621315.8,286047002.7,P,1.3
1503621335.6,286047002.5,N,1.3
1503621355.5,286047001.3,N,1.2
1503621375.3,286047001.5,N,1.1
1503621395.2,286047001.8,N,1.1
1503621415.9,286047002.0,N,1.0
1503621435.7,286047001.5,N,1.0
1503621455.6,286047001.3,N,0.9
1503621475.4,286047001.4,N,0.9
1503621495.3,286047001.3,N,0.8
1503621515.1,286047004.3,Y,0.0
1503621516.0,286047004.3,P,1.4
1503621535.8,286047002.6,N,1.2
1503621555.7,286047002.5,N,1.0
1503621575.5,286047002.2,N,0.9
1503621595.3,286047002.1,N,0.9
1503621615.2,286047001.8,N,0.9
1503621635.0,286047001.6,N,0.8
1503621635.9,286047001.6,N,0.8
1503621655.8,286047001.8,N,0.8
1503621675.6,286047001.4,N,0.8
1503621695.4,286047004.4,Y,0.0
1503621715.3,286047000.7,P,0.7
1503621735.1,286047000.4,N,0.7
1503621755.9,286047000.3,N,0.7
1503621775.7,286047000.7,N,0.7
1503621795.5,286047000.8,N,0.6
1503621815.4,286046999.7,N,0.7
1503621835.2,286047002.7,Y,0.0
1503621855.1,286047000.1,P,0.3
1503621856.0,286047000.1,N,0.3
1503621875.8,286047000.2,N,0.2
1503621895.6,286046999.9,N,0.3
1503621915.5,286047000.2,N,0.2
1503621935.3,286047000.2,N,0.2
1503621955.1,286047002.7,Y,0.0
1503621975.9,286046999.7,P,0.2
1503621995.7,286047000.2,N,0.2
1503622015.6,286046999.9,N,0.2
1503622035.4,286047001.0,Y,0.0
1503622055.5,286046999.7,P,0.1
1503622075.3,286047000.1,N,0.2
1503622095.2,286047002.7,P,1.2
1503622115.9,286047002.5,N,1.3
1503622135.7,286047002.3,N,1.3
1503622155.6,286047001.9,N,1.2
1503622175.4,286047002.1,N,1.2
1503622195.3,286047001.6,N,1.1
1503622215.1,286047002.1,N,1.1
1503622216.0,286047002.1,N,1.0
1503622235.8,286047003.9,Y,0.0
1503622255.7,286047002.7,P,0.6
1503622275.5,286046999.7,N,1.2
1503622295.3,286047002.3,N,1.2
1503622315.2,286046999.9,N,1.2
1503622335.0,286047000.0,N,1.2
1503622335.9,286047000.0,N,1.2
1503622355.8,286047002.4,N,1.2
1503622375.6,286047000.6,N,1.2
1503622395.4,286047001.0,N,1.1
1503622415.3,286047000.3,N,1.1
1503622435.1,286046999.7,N,1.1
1503622455.9,286047002.7,N,1.1
1503622475.7,286046999.7,N,1.2
1503622495.5,286047002.3,N,1.2
1503622515.4,286047001.7,N,1.1
1503622535.2,286047001.6,N,1.1
1503622555.0,286047002.0,N,1.1
1503622556.0,286047002.0,N,1.1
1503622575.8,286047001.9,N,1.1
1503622595.6,286047001.8,N,1.1
1503622615.5,286047004.3,Y,0.0
1503622635.3,286047002.5,P,0.6
1503622655.2,286047001.6,N,0.5
1503622675.9,286047002.0,P,0.5
1503622695.7,286047002.0,Y,0.0
1503622715.6,286046998.5,P,1.7
1503622735.4,286046998.6,N,1.5
1503622755.3,286046998.7,N,1.4
1503622775.1,286047000.8,N,1.4
1503622776.0,286047000.8,N,1.3
1503622795.8,286046998.6,N,1.3
